Location: Gombori
(14.9797°N, 2.9419°W)
Time: 00:20:11
(UTC+00:00)

Cosmos 2058 - Pass Details

Date: 29 July 2021
Orbit: 560 x 584 km, 82.5° (Epoch: 20 September)

Event Time Altitude Azimuth Distance (km) Brightness Sun altitude
Rises 19:30:25 0° 173° (S) 2,762 6.1 -11.6°
Reaches altitude 10° 19:32:39 10° 167° (SSE) 1,870 5.2 -12.1°
Maximum altitude 19:36:37 48° 93° (E) 758 3.1 -13.0°
Drops below altitude 10° 19:40:37 10° 19° (NNE) 1,886 5.6 -13.9°
Sets 19:42:52 0° 13° (NNE) 2,788 6.6 -14.4°
